Temperature
30 32 32 32 32 32 32 31 31 31 31 32 32 32 31 30 30 29 28 27 26 25 24 23 22 22 21 21 20 20 19 19 18 18 18 18 18 18 18 18 17 17 17 17
29 31 32 32 32 32 32 32 32 32 31 32 32 32 31 30 30 29 28 27 26 25 24 23 22 21 21 21 20 20 19 19 18 18 18 18 18 18 17 17 17 17 17 17
28 30 30 30 32 32 32 33 32 31 32 32 32 31 30 30 29 28 28 27 26 25 24 23 22 21 21 20 20 19 19 19 18 18 18 18 17 17 17 17 17 17 17 16
27 28 27 30 33 33 32 33 33 32 32 32 30 30 29 29 29 28 27 26 25 24 23 22 22 21 21 20 20 19 19 18 18 18 18 17 17 17 17 17 17 17 16 16
26 27 28 30 32 32 32 31 33 32 32 32 30 29 28 28 27 26 26 25 24 24 23 22 22 21 21 20 20 19 19 18 18 18 18 17 17 17 17 17 16 16 16 16
26 26 27 29 32 32 32 30 32 32 32 31 30 29 27 26 25 25 24 24 24 23 22 22 21 21 20 20 19 19 19 18 18 18 18 17 17 17 17 16 16 16 16 16
25 25 27 30 31 31 29 28 29 30 30 29 28 27 25 24 24 23 23 22 22 22 21 21 20 20 20 19 19 19 18 18 18 17 17 17 17 16 16 16 16 15 15 15
24 25 26 29 29 28 26 26 27 27 27 26 25 24 24 23 22 22 21 21 21 20 20 20 19 19 19 19 18 18 18 18 17 17 17 16 16 16 16 15 15 15 15 15
26 26 26 26 26 26 25 25 25 25 25 25 24 23 23 22 21 21 20 20 20 19 19 19 18 18 18 18 18 18 18 17 17 17 16 16 16 15 15 15 15 14 14 14
25 26 26 25 25 25 25 24 24 24 24 24 23 22 21 20 20 19 19 19 19 18 18 18 18 18 17 17 17 17 17 17 16 16 16 16 15 15 14 14 14 14 14 14
24 24 24 24 23 23 23 23 23 23 23 22 21 21 20 19 19 18 18 18 18 17 17 17 17 17 17 17 17 16 16 16 16 15 15 15 15 14 14 14 14 13 13 13
22 22 22 22 22 22 22 22 22 22 21 21 20 20 19 18 18 17 17 17 17 16 16 16 16 16 16 16 16 16 15 15 15 15 14 14 14 14 14 13 13 13 13 13
20 21 21 21 21 21 21 21 21 21 20 20 19 19 18 17 17 16 16 16 16 15 15 15 15 15 15 15 15 15 15 15 14 14 14 13 13 13 13 13 13 12 12 12
19 20 20 20 20 20 20 20 20 19 19 19 18 18 17 17 16 16 15 15 15 15 15 15 15 15 15 15 14 14 14 14 13 13 13 13 13 12 12 12 12 12 12 11
19 19 19 19 19 19 19 19 19 19 18 17 17 17 16 16 15 15 15 14 14 14 14 14 14 14 14 14 13 13 13 13 12 12 12 12 12 11 11 11 11 11 11 11
18 18 19 19 18 18 18 18 18 18 17 17 16 16 15 15 15 14 14 14 13 13 13 13 13 13 13 13 12 12 12 12 12 11 11 11 11 11 11 11 10 10 10 10
17 17 17 17 18 18 18 17 17 17 17 16 16 15 15 14 14 13 13 13 13 13 13 12 12 12 12 12 12 11 11 11 11 11 11 11 10 10 10 10 9 9 9 9
17 16 16 16 16 17 17 17 17 16 16 15 15 14 14 14 13 13 13 12 12 12 12 12 12 12 12 11 11 11 11 11 10 10 10 10 10 10 10 9 9 9 9 9
16 16 16 16 16 16 16 16 16 15 15 15 14 14 13 13 13 13 12 12 12 12 11 11 11 11 11 11 11 11 10 10 10 10 10 10 9 9 9 9 9 9 9 8
15 15 15 15 15 15 15 15 15 15 14 14 14 13 13 13 12 12 12 12 11 11 11 11 11 11 10 10 10 10 10 10 10 10 10 10 9 9 9 9 9 9 8 8
14 14 14 14 14 14 14 14 14 14 14 13 13 13 13 12 12 12 12 11 11 11 11 11 10 10 10 10 10 10 10 10 10 10 10 10 9 9 9 9 9 8 8 8
13 13 13 14 13 13 13 13 13 13 13 13 13 12 12 12 12 11 11 11 11 11 11 10 10 10 10 10 10 10 10 10 10 10 10 10 9 9 9 9 9 9 8 8
12 12 12 13 13 12 13 13 13 13 13 12 12 12 12 12 12 11 11 11 11 11 10 10 10 10 10 10 10 10 10 10 10 10 10 10 9 9 9 9 9 9 9 8
11 11 12 11 12 12 12 12 12 12 12 12 12 12 11 11 11 11 11 10 10 10 10 10 10 10 10 10 10 10 10 10 10 10 10 10 9 9 9 9 9 9 9 8
11 11 11 11 11 11 11 11 11 11 11 11 11 11 11 11 11 10 10 10 10 10 10 10 10 10 10 10 10 10 10 10 10 10 10 10 9 9 9 9 9 9 9 9
10 10 10 11 11 11 11 11 11 11 11 11 10 10 10 10 10 10 10 10 10 10 9 9 9 10 10 10 10 10 10 10 10 10 9 9 9 9 9 9 9 9 9 8
10 10 10 10 11 11 11 11 11 11 11 10 10 10 10 10 10 10 10 10 10 9 9 9 10 10 10 10 9 9 9 9 9 9 9 9 9 9 9 9 9 9 8 8
Wind_Speed
19 20 17 15 17 19 18 17 16 12 9 7 5 6 7 9 9 9 9 9 9 9 8 8 8 8 7 7 7 6 7 6 6 5 4 3 3 3 3 2 3 2 2 2
18 21 21 18 16 17 19 18 18 16 12 5 4 5 8 8 8 8 8 9 9 9 10 9 8 8 7 7 6 6 5 5 5 5 4 3 3 3 3 2 2 2 2 1
15 18 20 21 18 16 14 15 15 14 10 7 4 5 6 7 7 7 7 6 7 8 8 8 8 8 8 7 6 6 5 5 5 5 4 4 4 3 3 2 2 2 2 2
14 16 20 17 16 17 16 15 13 9 7 4 5 6 5 4 5 5 5 6 6 6 7 7 8 8 7 8 7 7 6 6 5 5 5 4 4 3 3 2 2 2 2 2
12 17 18 16 15 14 14 14 12 10 8 7 7 8 6 5 5 4 4 5 5 6 6 6 7 7 8 7 7 7 7 6 5 5 5 4 4 3 3 2 2 2 2 2
13 15 17 13 12 11 12 11 9 7 6 6 7 5 5 7 8 7 7 6 5 5 6 6 5 6 7 7 6 6 5 5 4 4 4 4 4 4 3 2 2 2 2 2
17 18 14 11 8 6 9 4 4 4 4 4 4 6 8 9 8 8 7 7 6 6 6 5 4 5 5 5 5 4 4 4 3 3 4 4 3 3 3 2 2 2 3 3
16 19 15 7 6 3 3 7 9 8 9 10 10 10 10 9 9 8 7 7 6 6 6 5 4 4 4 3 3 4 4 4 3 3 3 3 3 3 3 3 3 3 3 2
12 11 2 3 4 5 6 7 6 6 8 8 9 8 9 9 8 7 7 6 5 6 6 6 4 3 3 3 3 3 4 3 3 3 2 3 3 3 3 3 3 3 3 3
5 4 3 2 3 4 6 6 5 6 6 6 7 8 8 7 7 6 6 6 5 6 6 5 5 4 4 4 3 2 3 3 2 2 2 2 1 1 1 1 2 2 2 2
6 1 1 3 5 6 5 5 5 6 6 6 6 6 6 5 6 6 6 6 6 6 6 6 5 5 5 4 3 2 2 2 2 2 2 2 2 3 2 3 2 1 1 0
2 2 1 2 4 4 3 3 3 4 5 5 4 4 6 5 6 6 6 6 6 6 5 5 4 4 4 3 2 2 2 1 1 2 2 2 3 3 8 6 7 7 5 3
6 6 2 2 2 1 2 2 3 3 4 4 4 5 6 6 6 6 6 6 5 5 5 5 4 4 3 2 2 1 0 0 1 0 1 2 2 2 2 4 7 8 7 7
6 5 2 1 2 2 1 2 3 3 4 5 5 5 6 6 6 6 6 5 5 4 4 4 4 3 3 2 1 1 1 0 1 0 1 1 1 1 1 2 2 2 4 6
5 4 5 3 2 2 1 1 2 3 4 5 5 5 6 6 6 5 5 5 4 4 3 4 4 3 2 1 1 1 1 1 1 1 0 0 0 0 1 1 2 3 3 3
7 6 4 3 3 4 3 1 2 3 3 4 5 5 6 7 6 6 5 4 4 4 3 3 3 2 2 1 1 0 1 1 1 1 0 0 0 1 1 1 2 2 3 3
8 7 6 5 6 5 3 1 1 2 3 5 5 6 6 7 7 5 4 5 4 4 3 2 2 2 1 0 1 0 1 1 2 0 0 0 1 1 1 1 2 2 2 3
7 8 6 5 5 4 3 2 2 2 3 5 6 6 6 6 6 5 5 5 5 4 3 3 3 2 1 0 1 0 1 1 1 1 1 1 1 1 1 1 2 2 2 4
7 7 5 4 4 2 2 2 1 2 3 4 5 5 5 5 5 5 5 5 4 4 3 3 3 3 3 1 1 1 1 1 2 2 2 2 2 1 1 1 1 2 2 3
7 6 6 4 4 2 2 1 2 3 3 4 6 6 4 4 4 4 4 3 2 3 3 3 3 3 3 2 2 1 1 1 1 2 2 1 2 2 2 2 2 2 2 3
5 5 4 2 1 1 2 2 3 4 4 4 6 6 6 5 4 4 3 3 4 4 3 3 1 2 2 1 2 1 2 2 2 2 2 1 1 2 2 1 1 2 2 3
4 3 2 1 3 2 2 2 4 4 5 5 5 5 5 5 5 4 4 4 4 3 1 2 2 3 3 2 1 1 2 2 2 2 2 2 1 1 1 1 1 1 2 2
1 1 1 2 3 3 2 2 4 4 5 5 6 5 4 4 4 4 4 4 4 2 1 4 5 4 4 3 2 1 1 2 1 1 1 1 1 1 1 1 1 1 1 2
2 2 3 3 3 4 4 3 4 5 6 6 6 6 4 3 3 3 5 5 5 3 3 5 4 1 3 3 1 1 2 2 1 1 1 1 1 0 1 1 1 1 1 2
3 3 4 4 3 3 4 5 5 6 6 5 6 6 4 3 3 4 5 6 6 4 3 4 4 3 3 3 1 2 2 2 2 3 1 1 1 1 1 1 2 2 2 2
4 4 4 3 3 3 4 4 4 4 5 5 5 5 4 4 5 4 4 4 5 3 2 2 3 3 2 1 1 1 1 1 0 1 2 1 2 2 2 2 2 2 2 1
5 5 4 4 3 3 4 4 5 4 5 5 5 4 4 4 3 3 3 3 3 2 2 1 1 0 1 2 2 2 2 2 2 2 2 2 3 3 3 3 3 3 3 3
Wind_Direction
254 264 265 239 224 226 232 242 253 259 256 244 191 167 146 146 149 150 151 155 154 154 151 151 154 160 166 166 162 166 167 167 168 170 166 161 166 174 178 198 207 187 197 206
248 255 261 258 244 229 227 232 243 254 258 258 160 152 145 152 155 155 159 162 161 159 160 160 163 169 167 166 159 160 164 162 158 161 159 161 164 176 176 185 191 178 178 169
252 246 250 248 249 250 241 232 235 244 249 244 192 153 147 149 156 160 162 162 167 161 158 163 169 167 167 165 162 165 163 163 162 163 163 162 174 175 172 174 173 169 157 143
251 255 248 248 247 246 248 247 240 234 233 202 130 119 115 128 151 159 165 156 152 151 151 159 164 165 163 163 165 169 170 170 168 172 173 167 167 162 156 157 163 154 145 144
246 247 247 252 250 246 245 242 243 237 224 197 157 142 115 101 107 107 116 121 134 147 147 149 159 159 162 166 167 172 175 174 174 176 171 169 169 159 156 160 165 164 152 147
248 250 249 249 256 262 251 237 242 236 226 206 181 185 118 95 88 82 79 90 101 120 125 134 141 153 164 169 170 176 173 169 167 169 171 174 172 166 166 169 177 169 143 135
242 251 255 278 294 279 248 244 13 23 57 76 77 88 103 98 92 88 86 89 86 94 98 105 118 139 160 166 172 168 156 155 162 167 169 170 164 161 163 173 173 162 145 141
231 244 247 304 272 266 58 53 43 41 63 75 84 90 97 96 95 94 91 90 96 92 90 90 100 124 135 128 125 133 141 150 155 156 169 160 152 155 161 175 180 173 168 169
223 231 231 29 54 65 78 75 60 61 71 80 90 93 97 98 99 99 98 95 97 100 94 88 82 96 120 95 90 114 128 135 133 134 128 125 144 156 177 190 199 201 193 197
245 204 178 147 91 78 76 74 67 68 76 83 95 104 102 100 99 97 92 92 94 96 95 82 70 68 74 77 71 104 132 133 138 145 139 130 134 164 198 212 215 214 218 206
234 195 84 67 54 57 65 71 69 71 71 81 88 102 108 104 107 102 96 90 87 90 88 78 69 67 68 69 72 90 122 141 163 165 151 124 84 41 31 49 19 318 273 233
282 45 62 60 37 33 43 58 66 71 71 75 90 98 111 108 110 107 103 99 97 96 95 92 83 75 67 65 74 92 135 148 187 165 144 147 139 102 55 61 59 59 56 63
337 333 17 19 1 30 20 37 67 80 89 85 87 100 112 112 108 110 108 103 102 106 106 102 93 79 68 62 66 68 62 102 279 203 156 160 161 159 139 78 65 60 61 73
345 343 321 324 337 9 20 54 72 80 88 95 101 110 117 120 115 113 112 111 110 109 113 110 101 81 54 49 41 0 304 133 304 266 210 190 189 187 177 170 149 100 72 88
304 300 286 303 333 338 322 144 119 101 99 98 98 109 113 114 110 103 102 107 111 108 107 108 101 79 45 48 52 10 336 1 360 345 23 98 163 175 157 150 142 131 116 99
294 277 271 262 260 257 241 198 142 135 130 118 114 114 115 114 109 104 100 107 113 105 96 107 100 83 66 65 75 120 76 45 356 325 40 142 158 114 96 103 124 138 140 142
287 286 273 256 246 242 244 217 191 181 159 141 135 128 121 121 121 121 120 110 108 103 98 93 79 74 93 154 237 210 142 131 169 146 82 84 102 104 111 122 139 143 146 147
283 284 274 272 274 264 241 227 211 153 142 144 140 137 138 137 135 135 133 129 129 121 112 123 126 129 118 303 295 245 161 150 145 126 113 101 108 121 131 144 166 154 146 152
264 270 270 259 266 263 257 240 190 136 138 139 145 142 141 143 145 146 147 142 137 131 129 131 146 156 149 175 283 222 166 148 126 118 119 127 139 134 124 126 138 137 137 142
273 275 266 256 251 231 273 266 182 146 151 153 154 145 145 152 153 152 148 134 120 112 123 127 167 155 149 152 262 203 119 119 113 113 121 129 120 115 121 132 137 141 148 151
280 275 264 229 200 176 202 205 172 160 167 164 156 154 155 156 157 155 149 123 98 91 109 133 157 127 115 57 249 183 132 122 121 123 127 125 116 118 124 132 153 168 163 165
306 306 320 123 118 130 151 172 165 162 164 158 145 142 145 145 142 127 107 107 119 110 158 142 107 70 35 330 249 125 118 120 118 112 110 113 125 139 156 193 208 199 184 188
358 0 47 82 108 110 110 132 139 143 142 138 131 130 134 138 140 138 126 120 133 152 157 94 92 70 11 323 319 92 107 108 111 126 134 132 133 152 183 218 244 244 225 219
68 103 97 97 108 107 99 99 104 109 112 112 113 117 122 123 116 109 106 110 109 125 102 109 127 113 302 287 305 36 53 55 39 47 90 92 90 197 217 227 238 242 228 230
70 82 93 104 108 108 109 103 102 107 110 107 107 101 96 93 99 100 108 116 125 132 132 153 181 228 271 292 0 45 66 50 17 356 6 5 289 257 255 273 275 264 257 253
71 76 77 76 81 94 108 110 112 113 108 103 96 87 80 79 84 89 109 124 128 132 130 147 187 222 255 329 31 15 29 94 188 298 350 1 359 3 3 359 354 344 328 319
88 87 82 75 76 87 93 95 98 97 97 102 100 90 90 88 84 86 93 112 134 146 141 165 201 120 63 35 27 27 28 20 11 3 359 3 0 5 9 2 351 354 355 353
Height
1475 1468 1465 1467 1471 1473 1478 1481 1487 1483 1482 1478 1475 1478 1481 1486 1490 1494 1498 1502 1506 1509 1512 1515 1517 1519 1521 1522 1523 1524 1525 1526 1526 1527 1528 1529 1530 1531 1532 1532 1533 1534 1535 1536
1479 1471 1467 1468 1465 1466 1470 1472 1476 1478 1478 1471 1474 1478 1481 1485 1489 1493 1497 1501 1504 1507 1510 1512 1514 1517 1519 1520 1522 1523 1524 1525 1525 1526 1527 1527 1528 1529 1530 1531 1532 1533 1533 1534
1485 1473 1471 1476 1466 1464 1464 1464 1469 1476 1474 1471 1473 1477 1480 1484 1488 1492 1496 1499 1502 1505 1508 1510 1512 1514 1516 1518 1520 1521 1522 1523 1524 1525 1525 1526 1527 1528 1528 1529 1530 1531 1531 1532
1485 1483 1493 1469 1454 1455 1460 1460 1460 1464 1467 1469 1474 1478 1481 1485 1487 1491 1495 1497 1500 1503 1506 1508 1510 1512 1515 1516 1518 1520 1521 1522 1523 1523 1524 1525 1526 1527 1527 1528 1529 1529 1529 1530
1486 1487 1480 1464 1454 1454 1459 1462 1458 1461 1464 1468 1472 1477 1483 1485 1487 1490 1492 1496 1499 1502 1504 1506 1508 1510 1513 1515 1516 1518 1519 1520 1521 1522 1523 1523 1524 1525 1525 1526 1526 1527 1527 1528
1486 1490 1487 1467 1453 1453 1457 1466 1459 1460 1463 1467 1471 1477 1485 1486 1488 1490 1492 1495 1498 1500 1502 1504 1506 1508 1511 1513 1514 1516 1517 1518 1519 1520 1521 1522 1522 1523 1523 1524 1524 1525 1525 1525
1488 1487 1475 1459 1454 1456 1472 1473 1463 1463 1466 1468 1473 1478 1485 1486 1489 1491 1493 1495 1497 1500 1501 1503 1505 1507 1509 1511 1512 1514 1515 1516 1517 1518 1519 1519 1520 1521 1521 1522 1522 1522 1522 1522
1484 1487 1481 1463 1459 1464 1470 1468 1468 1469 1471 1474 1477 1480 1484 1487 1490 1492 1494 1496 1498 1499 1501 1502 1504 1506 1507 1509 1511 1512 1513 1514 1515 1516 1517 1517 1518 1518 1519 1519 1520 1520 1520 1520
1470 1473 1468 1467 1467 1469 1470 1471 1473 1475 1476 1478 1480 1484 1486 1489 1491 1493 1495 1496 1497 1499 1500 1502 1503 1505 1506 1508 1509 1510 1511 1512 1513 1514 1514 1515 1515 1516 1517 1517 1517 1517 1517 1517
1464 1463 1466 1468 1469 1470 1472 1474 1476 1478 1479 1480 1483 1486 1488 1490 1492 1494 1495 1497 1498 1499 1500 1501 1502 1504 1505 1506 1507 1508 1509 1510 1511 1511 1512 1513 1513 1513 1514 1514 1514 1514 1515 1515
1465 1466 1468 1471 1472 1474 1475 1477 1478 1480 1481 1482 1484 1486 1489 1491 1493 1494 1495 1497 1498 1498 1499 1500 1501 1502 1503 1504 1505 1506 1507 1508 1509 1509 1510 1510 1510 1511 1511 1511 1512 1512 1512 1512
1470 1471 1472 1474 1475 1477 1478 1479 1480 1481 1482 1484 1485 1487 1489 1491 1493 1494 1495 1496 1497 1498 1498 1499 1500 1501 1501 1502 1503 1504 1505 1506 1506 1507 1507 1507 1507 1508 1507 1508 1508 1508 1509 1509
1474 1473 1474 1475 1477 1478 1479 1480 1481 1482 1483 1485 1486 1488 1490 1491 1493 1494 1495 1496 1497 1497 1498 1499 1499 1500 1500 1500 1501 1502 1502 1503 1504 1504 1504 1504 1504 1504 1504 1505 1505 1505 1505 1505
1476 1475 1476 1477 1478 1479 1480 1480 1481 1482 1483 1485 1487 1488 1490 1491 1492 1493 1495 1495 1496 1497 1497 1498 1498 1499 1499 1499 1499 1500 1501 1501 1501 1502 1502 1501 1501 1502 1502 1502 1502 1501 1502 1502
1477 1477 1477 1477 1478 1479 1480 1480 1481 1482 1483 1485 1487 1488 1490 1491 1492 1493 1493 1494 1495 1496 1496 1497 1497 1498 1498 1498 1498 1499 1499 1499 1499 1499 1499 1499 1499 1499 1499 1499 1499 1499 1499 1499
1477 1477 1476 1477 1478 1480 1480 1480 1481 1482 1483 1485 1487 1489 1489 1490 1491 1492 1493 1494 1495 1495 1496 1495 1495 1496 1496 1497 1497 1497 1497 1497 1497 1497 1497 1498 1498 1497 1497 1497 1497 1497 1496 1496
1477 1476 1477 1477 1478 1479 1479 1480 1481 1482 1483 1484 1486 1488 1489 1489 1490 1492 1493 1493 1494 1494 1494 1495 1494 1495 1495 1495 1496 1496 1496 1496 1496 1496 1496 1496 1496 1496 1495 1495 1495 1495 1495 1495
1476 1477 1476 1476 1476 1477 1478 1479 1480 1481 1482 1483 1485 1486 1487 1488 1489 1491 1491 1492 1493 1493 1493 1493 1493 1494 1494 1494 1494 1495 1495 1495 1495 1494 1494 1494 1494 1494 1494 1494 1494 1494 1494 1494
1474 1474 1474 1474 1474 1476 1476 1477 1478 1479 1481 1482 1484 1485 1486 1488 1489 1490 1491 1491 1492 1492 1492 1493 1492 1492 1492 1493 1493 1494 1495 1495 1494 1494 1493 1493 1493 1493 1493 1493 1494 1494 1494 1493
1471 1472 1472 1472 1472 1473 1474 1475 1477 1478 1480 1482 1482 1484 1485 1487 1488 1489 1490 1490 1491 1491 1492 1492 1492 1492 1492 1492 1493 1494 1494 1494 1493 1493 1492 1492 1493 1493 1493 1493 1493 1493 1493 1493
1469 1470 1470 1470 1470 1471 1473 1474 1476 1477 1478 1480 1481 1482 1484 1486 1487 1488 1489 1490 1490 1490 1491 1491 1492 1492 1492 1492 1492 1493 1493 1493 1493 1492 1492 1492 1492 1492 1492 1492 1492 1492 1492 1492
1467 1468 1469 1469 1470 1471 1472 1473 1474 1476 1478 1479 1480 1482 1484 1485 1487 1488 1488 1489 1489 1490 1491 1492 1492 1491 1491 1492 1493 1493 1493 1493 1493 1493 1492 1492 1492 1492 1492 1492 1492 1492 1492 1492
1467 1468 1468 1468 1469 1470 1471 1472 1474 1475 1477 1479 1480 1482 1483 1485 1486 1487 1488 1488 1489 1490 1491 1492 1491 1491 1492 1492 1493 1493 1494 1493 1493 1493 1493 1493 1493 1492 1492 1492 1492 1492 1492 1492
1468 1468 1469 1469 1469 1470 1472 1473 1474 1476 1477 1479 1481 1482 1484 1486 1487 1487 1487 1488 1489 1490 1491 1491 1491 1492 1492 1492 1494 1494 1494 1494 1494 1493 1493 1493 1493 1493 1493 1492 1492 1492 1492 1491
1468 1469 1470 1470 1471 1472 1473 1474 1475 1476 1478 1480 1482 1483 1485 1486 1487 1487 1488 1488 1490 1490 1491 1492 1492 1492 1492 1493 1493 1494 1494 1494 1494 1493 1494 1493 1493 1493 1493 1492 1492 1491 1491 1491
1470 1471 1471 1472 1473 1474 1475 1476 1477 1479 1480 1482 1483 1484 1486 1486 1487 1488 1489 1490 1491 1491 1492 1493 1493 1493 1493 1494 1494 1494 1494 1493 1493 1493 1493 1493 1493 1492 1492 1491 1491 1490 1489 1489
1473 1473 1474 1475 1476 1477 1478 1479 1480 1481 1482 1484 1485 1486 1487 1488 1489 1490 1491 1492 1492 1493 1493 1494 1494 1494 1494 1494 1494 1494 1494 1493 1493 1493 1493 1492 1492 1491 1490 1489 1489 1488 1487 1487